| time (UTC) | temp F | wind direction | speed knots | gust knots | rain 1hr in | rain 24hr in | rain mn in | humidity % | barometer mb |
| 20260508044556 | 0 | 0.0 | 0.0 | 0.00 | 0.00 | 0.00 | 975.0 | ||
| 20260508043101 | 0 | 0.0 | 0.0 | 0.00 | 0.00 | 0.00 | 974.8 | ||
| 20260508041547 | 0 | 0.0 | 0.0 | 0.00 | 0.00 | 0.00 | 974.5 | ||
| 20260508040043 | 0 | 0.0 | 0.0 | 0.00 | 0.00 | 0.00 | 974.5 | ||
| 20260508034539 | 0 | 274 | 0.0 | 0.0 | 0.00 | 0.00 | 0.00 | 974.3 | |
| 20260508033036 | 53 | 272 | 0.0 | 0.0 | 0.00 | 0.00 | 0.00 | 93 | 974.2 |
| 20260508031533 | 54 | 272 | 0.0 | 0.0 | 0.00 | 0.00 | 0.00 | 93 | 974.1 |
| 20260508030042 | 54 | 272 | 0.0 | 0.0 | 0.00 | 0.00 | 0.00 | 92 | 973.8 |
| 20260508024533 | 55 | 272 | 0.0 | 0.9 | 0.00 | 0.00 | 0.00 | 93 | 973.7 |
| 20260508023028 | 55 | 272 | 0.0 | 0.0 | 0.00 | 0.00 | 0.00 | 92 | 973.7 |
| 20260508021529 | 56 | 272 | 0.0 | 0.0 | 0.00 | 0.00 | 0.00 | 92 | 973.6 |
| 20260508020023 | 56 | 272 | 0.0 | 0.9 | 0.00 | 0.00 | 0.00 | 92 | 973.5 |
| 20260508014522 | 57 | 202 | 0.0 | 0.0 | 0.00 | 0.00 | 0.00 | 91 | 973.4 |
| 20260508013021 | 58 | 202 | 0.0 | 0.0 | 0.00 | 0.00 | 0.00 | 92 | 973.5 |
| 20260508011520 | 57 | 201 | 0.0 | 0.0 | 0.00 | 0.00 | 0.00 | 92 | 973.6 |
| 20260508010025 | 57 | 201 | 0.0 | 0.0 | 0.00 | 0.00 | 0.00 | 92 | 973.4 |
| 20260508004620 | 57 | 199 | 0.0 | 0.0 | 0.00 | 0.00 | 0.00 | 91 | 973.7 |
| 20260508003018 | 57 | 189 | 0.0 | 0.0 | 0.00 | 0.00 | 0.00 | 90 | 973.6 |
| 20260508001514 | 58 | 188 | 0.0 | 0.0 | 0.00 | 0.00 | 0.00 | 89 | 973.6 |
| 20260508000010 | 59 | 188 | 0.0 | 0.0 | 0.00 | 0.00 | 0.00 | 88 | 973.8 |
| 20260507234506 | 60 | 188 | 0.0 | 0.0 | 0.00 | 0.00 | 0.00 | 88 | 974.1 |
| 20260507233004 | 60 | 188 | 0.0 | 0.0 | 0.00 | 0.00 | 0.00 | 88 | 974.6 |
| 20260507231502 | 60 | 131 | 0.0 | 0.9 | 0.00 | 0.00 | 0.00 | 89 | 974.9 |
| 20260507230112 | 60 | 141 | 0.0 | 0.9 | 0.00 | 0.00 | 0.00 | 88 | 975.2 |
| 20260507224558 | 60 | 123 | 0.0 | 1.7 | 0.00 | 0.00 | 0.00 | 89 | 975.3 |
| 20260507223056 | 60 | 273 | 0.9 | 3.5 | 0.00 | 0.00 | 0.00 | 88 | 975.4 |
| 20260507221552 | 60 | 82 | 0.0 | 4.3 | 0.00 | 0.00 | 0.00 | 87 | 975.8 |
| 20260507220051 | 61 | 248 | 0.0 | 0.0 | 0.00 | 0.00 | 0.00 | 85 | 975.9 |
| 20260507214551 | 61 | 248 | 0.0 | 0.0 | 0.00 | 0.00 | 0.00 | 85 | 975.1 |
| 20260507213058 | 61 | 248 | 0.0 | 0.9 | 0.00 | 0.00 | 0.00 | 84 | 974.4 |
| 20260507211554 | 60 | 279 | 0.0 | 0.0 | 0.00 | 0.00 | 0.00 | 85 | 973.8 |
| 20260507210050 | 60 | 279 | 0.0 | 0.0 | 0.00 | 0.00 | 0.00 | 85 | 973.8 |
| 20260507204555 | 60 | 279 | 0.0 | 0.9 | 0.00 | 0.00 | 0.00 | 85 | 974.1 |
| 20260507203049 | 60 | 283 | 0.0 | 0.0 | 0.00 | 0.00 | 0.00 | 85 | 974.3 |
| 20260507201555 | 61 | 283 | 0.0 | 0.0 | 0.00 | 0.00 | 0.00 | 84 | 974.5 |
| 20260507200052 | 61 | 283 | 0.0 | 0.0 | 0.00 | 0.00 | 0.00 | 83 | 974.7 |
| 20260507194553 | 62 | 283 | 0.0 | 0.9 | 0.00 | 0.00 | 0.00 | 81 | 974.2 |
| 20260507193046 | 62 | 281 | 0.0 | 0.0 | 0.00 | 0.00 | 0.00 | 80 | 973.9 |
| 20260507191608 | 62 | 281 | 0.0 | 0.9 | 0.00 | 0.00 | 0.00 | 79 | 973.6 |
| 20260507190046 | 63 | 281 | 0.0 | 0.0 | 0.00 | 0.00 | 0.00 | 78 | 973.3 |
| 20260507184555 | 63 | 133 | 0.0 | 1.7 | 0.00 | 0.00 | 0.00 | 78 | 973.4 |
| 20260507183047 | 63 | 180 | 0.0 | 1.7 | 0.00 | 0.00 | 0.00 | 77 | 973.1 |
| 20260507181543 | 64 | 205 | 0.0 | 0.9 | 0.00 | 0.00 | 0.00 | 76 | 973.2 |
| 20260507180043 | 64 | 128 | 0.0 | 1.7 | 0.00 | 0.00 | 0.00 | 75 | 973.6 |
| 20260507174544 | 65 | 150 | 0.0 | 1.7 | 0.00 | 0.00 | 0.00 | 74 | 973.2 |
| 20260507173041 | 65 | 67 | 0.0 | 2.6 | 0.00 | 0.00 | 0.00 | 74 | 972.8 |
| 20260507171547 | 66 | 63 | 0.0 | 2.6 | 0.00 | 0.00 | 0.00 | 72 | 972.6 |
| 20260507170039 | 67 | 52 | 0.9 | 4.3 | 0.00 | 0.00 | 0.00 | 71 | 972.8 |
| 20260507164552 | 67 | 114 | 0.0 | 2.6 | 0.00 | 0.00 | 0.00 | 71 | 973.2 |
| 20260507163038 | 68 | 94 | 0.0 | 3.5 | 0.00 | 0.00 | 0.00 | 70 | 973.0 |
| 20260507161539 | 69 | 172 | 0.0 | 3.5 | 0.00 | 0.00 | 0.00 | 68 | 973.0 |
| 20260507160037 | 69 | 280 | 0.0 | 4.3 | 0.00 | 0.00 | 0.00 | 67 | 972.9 |
| 20260507154536 | 70 | 82 | 0.9 | 4.3 | 0.00 | 0.00 | 0.00 | 66 | 972.8 |
| 20260507153035 | 70 | 319 | 0.9 | 4.3 | 0.00 | 0.00 | 0.00 | 65 | 973.0 |
| 20260507151537 | 70 | 4 | 0.0 | 2.6 | 0.00 | 0.00 | 0.00 | 66 | 973.2 |
| 20260507150037 | 71 | 197 | 0.0 | 3.5 | 0.00 | 0.00 | 0.00 | 64 | 973.2 |
| 20260507144534 | 71 | 340 | 0.0 | 2.6 | 0.00 | 0.00 | 0.00 | 64 | 972.8 |
| 20260507143054 | 71 | 288 | 0.9 | 4.3 | 0.00 | 0.00 | 0.00 | 63 | 972.7 |
| 20260507141552 | 72 | 127 | 0.0 | 3.5 | 0.00 | 0.00 | 0.00 | 62 | 972.8 |
| 20260507140034 | 71 | 168 | 0.0 | 6.1 | 0.00 | 0.00 | 0.00 | 63 | 972.7 |
| 20260507134530 | 71 | 169 | 2.6 | 7.0 | 0.00 | 0.00 | 0.00 | 61 | 972.9 |
| 20260507133033 | 72 | 83 | 0.0 | 5.2 | 0.00 | 0.00 | 0.00 | 61 | 973.1 |
| 20260507131536 | 72 | 122 | 1.7 | 4.3 | 0.00 | 0.00 | 0.00 | 59 | 973.1 |
| 20260507130038 | 72 | 86 | 1.7 | 6.1 | 0.00 | 0.00 | 0.00 | 59 | 973.4 |
| 20260507124527 | 72 | 100 | 2.6 | 7.8 | 0.00 | 0.00 | 0.00 | 58 | 973.5 |
| 20260507123023 | 73 | 134 | 0.0 | 5.2 | 0.00 | 0.00 | 0.00 | 56 | 973.6 |
| 20260507121523 | 73 | 1 | 1.7 | 6.1 | 0.00 | 0.00 | 0.00 | 57 | 973.7 |
| 20260507120022 | 72 | 132 | 2.6 | 6.1 | 0.00 | 0.00 | 0.00 | 58 | 973.8 |
| 20260507114522 | 72 | 126 | 0.9 | 7.8 | 0.00 | 0.00 | 0.00 | 59 | 973.6 |
| 20260507113019 | 72 | 53 | 1.7 | 6.1 | 0.00 | 0.00 | 0.00 | 57 | 973.7 |
| 20260507111518 | 72 | 115 | 2.6 | 7.8 | 0.00 | 0.00 | 0.00 | 56 | 973.6 |
| 20260507110021 | 72 | 131 | 1.7 | 8.7 | 0.00 | 0.00 | 0.00 | 57 | 973.8 |
| 20260507104516 | 72 | 96 | 2.6 | 9.6 | 0.00 | 0.00 | 0.00 | 56 | 974.1 |
| 20260507103016 | 73 | 166 | 4.3 | 8.7 | 0.00 | 0.00 | 0.00 | 53 | 974.0 |
| 20260507101515 | 74 | 198 | 0.9 | 7.8 | 0.00 | 0.00 | 0.00 | 54 | 974.0 |
| 20260507100011 | 73 | 111 | 1.7 | 8.7 | 0.00 | 0.00 | 0.00 | 53 | 974.0 |
| 20260507094509 | 73 | 140 | 2.6 | 7.0 | 0.00 | 0.00 | 0.00 | 51 | 973.9 |
| 20260507093009 | 73 | 342 | 1.7 | 9.6 | 0.00 | 0.00 | 0.00 | 51 | 974.1 |
| 20260507091512 | 72 | 94 | 1.7 | 9.6 | 0.00 | 0.00 | 0.00 | 53 | 974.0 |
| 20260507090007 | 71 | 124 | 1.7 | 7.8 | 0.00 | 0.00 | 0.00 | 52 | 974.0 |
| 20260507084505 | 71 | 206 | 2.6 | 12.2 | 0.00 | 0.00 | 0.00 | 53 | 974.1 |
| 20260507083003 | 70 | 133 | 2.6 | 7.8 | 0.00 | 0.00 | 0.00 | 53 | 974.0 |
| 20260507081502 | 71 | 82 | 3.5 | 6.1 | 0.00 | 0.00 | 0.00 | 53 | 974.2 |
| 20260507080003 | 70 | 128 | 1.7 | 7.8 | 0.00 | 0.00 | 0.00 | 55 | 974.2 |
| 20260507074600 | 70 | 151 | 1.7 | 6.1 | 0.00 | 0.00 | 0.00 | 56 | 974.5 |
| 20260507073059 | 71 | 151 | 0.9 | 3.5 | 0.00 | 0.00 | 0.00 | 54 | 974.4 |
| 20260507071605 | 71 | 12 | 0.0 | 3.5 | 0.00 | 0.00 | 0.00 | 53 | 974.2 |
| 20260507070104 | 70 | 346 | 0.0 | 3.5 | 0.00 | 0.00 | 0.00 | 54 | 974.3 |
| 20260507064626 | 69 | 125 | 0.0 | 4.3 | 0.00 | 0.00 | 0.00 | 52 | 974.2 |
| 20260507063058 | 69 | 207 | 0.0 | 4.3 | 0.00 | 0.00 | 0.00 | 54 | 974.3 |
| 20260507061551 | 68 | 102 | 0.0 | 4.3 | 0.00 | 0.00 | 0.00 | 54 | 974.3 |
| 20260507060109 | 68 | 90 | 0.0 | 2.6 | 0.00 | 0.00 | 0.00 | 53 | 974.2 |
| 20260507054551 | 66 | 213 | 0.9 | 4.3 | 0.00 | 0.00 | 0.00 | 55 | 974.1 |
| 20260507053041 | 63 | 164 | 0.0 | 4.3 | 0.00 | 0.00 | 0.00 | 60 | 974.2 |
| 20260507051547 | 58 | 141 | 0.0 | 5.2 | 0.00 | 0.00 | 0.00 | 71 | 974.1 |